Flag for United Kingdom Weather past 2 weeks in Leicester, England, United Kingdom

Now
59 °F

Fog.


Feels Like: 57 °F
Forecast: 57 / 78 °F
Wind: 9 mph from Northeast

Location: East Midlands

Current Time: Jul 23, 2014 at 7:55:20 AM

Latest Report: Jul 23, 2014 at 6:20 AM


Visibility: 3 mi

Pressure: 30.24 "Hg

Humidity: 94%

Dew point: 57 °F

Location of LeicesterLocation

Historic Weather in Leicester — Graph

°F

Leicester temperature yesterday

Maximum temperature yesterday: 77 °F (at 3:50 PM)
Minimum temperature yesterday: 55 °F (at 4:20 AM)
Average temperature yesterday: 64 °F

Past Weeks' High & Low Weather Summary

 TemperatureHumidityPressure
High82 °F (Jul 18, 4:50 PM)100% (Jul 19, 5:20 AM)30.27 "Hg (Jul 19, 5:20 AM)
Low50 °F (Jul 14, 4:20 AM)40% (Jul 10, 11:20 AM)29.71 "Hg (Jul 13, 6:50 AM)
Average65 °F75%30.00 "Hg
* Reported Jul 8 6:20 AM — Jul 23 6:20 AM, Leicester, Weather by CustomWeather, © 2014

Note: Actual official high and low records may vary slightly from our data, if they occured in-between our weather recording intervals... More about our weather records

Advertising

Leicester weather history for previous 24 hours

 ConditionsComfort  
Time TempWeatherWind HumidityBarometerVisibility
6:20 AM
Jul 23
59 °FFog.9 mph94%30.24 "Hg3 mi
5:50 AM59 °FFog.8 mph94%30.24 "Hg3 mi
5:20 AM59 °FFog.9 mph94%30.24 "Hg3 mi
4:50 AM59 °FLow clouds.7 mph94%30.24 "Hg4 mi
4:20 AM59 °FLow clouds.7 mph94%30.24 "Hg4 mi
3:50 AM59 °FMostly cloudy.7 mph94%30.24 "Hg5 mi
3:20 AM59 °FMostly cloudy.7 mph94%30.24 "Hg5 mi
2:50 AM59 °FMostly cloudy.6 mph94%30.27 "Hg4 mi
2:20 AM59 °FMostly cloudy.5 mph100%30.27 "Hg4 mi
1:50 AM59 °FLow clouds.5 mph100%30.27 "Hg4 mi
12:50 AM59 °FPassing clouds.9 mph100%30.27 "Hg5 mi
5:50 PM
Jul 22
75 °FScattered clouds.12 mph54%30.21 "HgN/A
5:20 PM75 °FScattered clouds.9 mph57%30.21 "HgN/A
4:50 PM77 °FScattered clouds.8 mph54%30.21 "HgN/A
3:50 PM77 °FScattered clouds.8 mph54%30.24 "HgN/A
3:20 PM75 °FScattered clouds.8 mph57%30.24 "HgN/A
2:50 PM75 °FScattered clouds.9 mph54%30.24 "HgN/A
2:20 PM73 °FScattered clouds.8 mph61%30.24 "HgN/A
1:50 PM73 °FScattered clouds.6 mph57%30.24 "HgN/A
1:20 PM73 °FScattered clouds.9 mph61%30.24 "HgN/A
12:50 PM73 °FScattered clouds.8 mph61%30.27 "HgN/A
12:20 PM72 °FPassing clouds.7 mph65%30.27 "HgN/A
11:20 AM68 °FPassing clouds.3 mph73%30.27 "HgN/A
10:20 AM63 °FPartly sunny.5 mph94%30.27 "Hg4 mi
9:50 AM61 °FFog.6 mph100%30.27 "Hg2 mi
9:20 AM61 °FFog.5 mph100%30.24 "Hg1 mi
8:50 AM59 °FFog.5 mph100%30.24 "Hg1 mi
8:20 AM59 °FFog.3 mph100%30.24 "Hg0 mi
7:50 AM57 °FFog.3 mph100%30.24 "Hg0 mi
7:20 AM57 °FFog.5 mph100%30.24 "Hg0 mi
Weather by CustomWeather, © 2014

See weather overviewHow to use our weather pages